HELSINKI-MALMI current weather conditions

sailwx.info

Wind from 050 at 5 knots

Air temperature 3.0° C
Visibility: greater than 5.4 NM
Dewpoint 1.0° C

Last reported at 2015-Apr-01 20:20 UTC.
Time now 2015-Apr-01 22:35 UTC

Location: N 60°15' E 025°03'.
View on Google Maps.

See reports from other nearby stations

  
Tides and Currents Weather Stations Pressure Air Temp Water Temp Dewpoint Dewpoint Depression Visibility Wind Speed Wind Dir Waves Ship Positions
date/time (UTC)wind fromknots sea level pressurealtimeterstation pressurevisibilityair tempwater tempwave heightnotes
2015-Apr-01 21:20 5.4 2.0 Drizzle.
2015-Apr-01 20:50 040 4 5.4 3.0 Light drizzle.
2015-Apr-01 20:20 050 5 5.4 3.0
2015-Apr-01 19:50 040 3 5.4 3.0
2015-Apr-01 19:20 040 4 5.4 2.0
2015-Apr-01 18:50 040 4 5.4 3.0
2015-Apr-01 18:20 050 5 5.4 3.0
2015-Apr-01 17:50 050 5 5.4 3.0
2015-Apr-01 17:20 040 4 5.4 3.0
2015-Apr-01 16:50 050 4 5.4 4.0
2015-Apr-01 16:20 050 4 5.4 4.0
2015-Apr-01 15:50 050 3 5.4 4.0
2015-Apr-01 15:20 050 4 5.4 4.0
2015-Apr-01 14:50 040 3 5.4 4.0
2015-Apr-01 14:20 080 6 5.4 4.0
2015-Apr-01 13:50 080 5 5.4 4.0
2015-Apr-01 13:20 080 6 5.4 4.0
2015-Apr-01 12:50 080 8 4.9 3.0
2015-Apr-01 12:20 070 9 4.9 3.0
2015-Apr-01 11:50 070 7 4.9 3.0
2015-Apr-01 11:20 070 8 4.9 2.0
2015-Apr-01 10:50 070 7 3.2 2.0
2015-Apr-01 10:20 070 7 5.4 2.0
2015-Apr-01 09:50 080 9 5.4 2.0
2015-Apr-01 09:20 100 8 5.4 2.0
2015-Apr-01 08:50 090 6 5.4 3.0
2015-Apr-01 08:20 040 5 5.4 3.0
2015-Apr-01 07:50 080 5 5.4 2.0
2015-Apr-01 07:20 080 5 5.4 2.0
2015-Apr-01 06:50 080 5 5.4 2.0 Light rain showers.
2015-Apr-01 06:20 070 2 5.4 2.0 Light rain showers.
2015-Apr-01 05:50 060 2 5.4 1.0
2015-Apr-01 05:20 5.4 1.0
2015-Apr-01 04:50 5.4-0.0
2015-Apr-01 04:20 1.3-0.0 Mist.
2015-Apr-01 03:50 040 2 0.4-0.0 Fog.
2015-Apr-01 03:20 040 1 0.2-0.0 Fog.
2015-Apr-01 02:50 030 2 1.6 1.0 Mist.
2015-Apr-01 02:20 050 1 3.8 1.0
2015-Apr-01 01:50 080 3 3.8 1.0
2015-Apr-01 01:20 100 3 3.2-0.0
2015-Apr-01 00:50 080 2 1.1-1.0 Mist.
2015-Apr-01 00:20 090 1 3.2-1.0
2015-Mar-31 23:50 110 2 2.3-2.0 Mist.
2015-Mar-31 23:20 100 1 0.2-2.0 Freezing fog.
2015-Mar-31 22:50 070 1 2.2-1.0 Mist.
2015-Mar-31 22:20 120 2 5.4-0.0
2015-Mar-31 21:50 5.4-0.0
2015-Mar-31 21:20 140 2 5.4 1.0
2015-Mar-31 20:50 180 3 5.4 2.0
2015-Mar-31 20:20 190 4 5.4 2.0
2015-Mar-31 19:50 190 5 5.4 2.0
2015-Mar-31 19:20 210 4 5.4 2.0
2015-Mar-31 18:50 230 6 5.4 2.0
2015-Mar-31 18:20 210 6 5.4 2.0
2015-Mar-31 17:50 210 7 5.4 2.0
2015-Mar-31 17:20 200 7 5.4 2.0
2015-Mar-31 16:50 190 7 5.4 2.0
2015-Mar-31 16:20 190 9 5.4 3.0
2015-Mar-31 15:50 200 7 5.4 3.0
2015-Mar-31 15:20 190 8 5.4 3.0
2015-Mar-31 14:50 190 8 5.4 3.0
2015-Mar-31 14:20 200 10 5.4 3.0
2015-Mar-31 13:50 200 10 5.4 3.0
2015-Mar-31 13:20 190 10 5.4 3.0
2015-Mar-31 12:50 200 11 5.4 3.0
2015-Mar-31 12:20 200 12 5.4 3.0
2015-Mar-31 11:50 190 11 5.4 3.0
2015-Mar-31 11:20 200 11 5.4 2.0
2015-Mar-31 10:50 190 12 5.4 2.0
2015-Mar-31 10:20 200 15 5.4 3.0
2015-Mar-31 09:50 200 14 5.4 2.0
2015-Mar-31 09:20 190 16 5.4 2.0
2015-Mar-31 08:50 190 16 gusting 26 4.9 2.0
2015-Mar-31 08:20 180 15 5.4 2.0
2015-Mar-31 07:50 180 15 5.4 2.0 Light drizzle.
2015-Mar-31 07:20 170 16 5.4 2.0 Light drizzle.
2015-Mar-31 06:50 170 14 gusting 26 2.2 3.0 Light drizzle. Mist.
2015-Mar-31 06:20 170 14 4.3 3.0 Light drizzle.
2015-Mar-31 05:50 160 12 4.3 2.0 Light rain.
2015-Mar-31 05:20 160 12 4.9 3.0 Light rain.
2015-Mar-31 04:50 150 10 3.8 2.0 Light rain.
2015-Mar-31 04:20 150 10 4.3 3.0 Light rain.
2015-Mar-31 03:50 140 11 5.4 3.0 Light rain.
2015-Mar-31 03:20 120 16 5.4 3.0 Light rain.
2015-Mar-31 02:50 110 15 5.4 3.0 Light drizzle.
2015-Mar-31 02:20 100 16 5.4 3.0 Light drizzle.
2015-Mar-31 01:50 100 17 gusting 27 5.4 3.0 Light rain.
2015-Mar-31 01:20 100 16 5.4 3.0 Light rain.
2015-Mar-31 00:50 100 16 5.4 3.0
2015-Mar-31 00:20 100 13 5.4 2.0
2015-Mar-30 23:50 090 13 5.4 2.0
2015-Mar-30 23:20 100 13 5.4 3.0
2015-Mar-30 22:50 110 11 5.4 3.0
2015-Mar-30 22:20 100 11 5.4 2.0